Location: Castelbiague
(43.0361°N, 0.9246°E)
Time: 15:05:36
(UTC+00:00)

Meteor 2-11 Rocket - Pass Details

Date: 17 June 2021
Orbit: 938 x 958 km, 82.5° (Epoch: 30 July)

Event Time Altitude Azimuth Distance (km) Brightness Sun altitude
Rises 21:38:02 0° 350° (N) 3,632 8.8 -16.2°
Reaches altitude 10° 21:40:33 10° 349° (N) 2,679 7.9 -16.5°
Maximum altitude 21:46:40 79° 265° (W) 968 4.5 -17.1°
Enters shadow 21:50:42 22° 181° (S) 1,915 5.6 -17.4°
